Find Starlink 30989

NORAD ID: 58510 Int'l Des: 2023-191 Owner: SPXS Country: US Constellation: starlink operational
LEOCIRCULAR

当前视图

正在加载3D地球...

About Starlink 30989

Starlink 30989 (NORAD 58510) is a starlink constellation satellite (v2 mini) launched Dec 7, 2023 by SPXS of US. It operates in LEO, CIRCULAR orbit with a mass of 730.00 kg.

即将过境

Passes for default location (London). Set your location on the main map for personalized predictions.

高度历史

Loading altitude history...

两行轨道根数

1 58510U 23191C 26227.15627397 .00001569 00000-0 66533-4 0 9992
2 58510 42.9988 288.7612 0002734 161.1031 198.9923 15.27588798149739
Epoch: Aug 15, 2026 • Age: 12 hours

当前状态

高度 488.0 km
远地点 / 近地点 N/A
速度 7.62 km/s
星下点 -15.88°S, 61.06°E
发射日期 Dec 7, 2023
运行时间 2.6 years
类型 internet

技术详情

分类 Payload
质量 730.00 kg
干质量 700.00 kg
总质量 730.00 kg
长度 0.30 m
直径 4.10 m
跨度 29.00 m
形状 Box + pan
制造商 SPXS
平台类型 Starlink V2M
阶段状态 In Orbit
所有者/国家 SPXS/US

Most Searched